FLOCK 1C-9

Last updated on Wed Feb 14 2018 16:18:44 GMT+0000 (Coordinated Universal Time)

1 40035U 14033AB 18045.36387005 -.00000194 00000-0 -14438-4 0 9993 2 40035 97.9243 323.2381 0011002 213.6886 146.3640 14.89260408198541
UTC large
Height (km)
Speed (km/s)
/
Latitude / Longitude
Inclination (degrees)
Orbital Period (minutes)
Azimuth
Elevation
Range (km)
Doppler Factor

Next 0 passes for location: London (51.5072 / 0.1276)

Sorry there are no passes over London.